When you browse on this site, cookies collect data to enhance your experience and personalize the content and advertising you see.
Visit our Privacy Policy to learn more. By continuing to use the site, you agree to this use of cookies and data.
  • în România
  • Lista ţărilor
  • Pe 7 zile
  • Temperatura apei
  • Hartă satelitară
  • Meteo pe hartă
  • Widget-uri
  • user-avatar
    Intrare

    Meteo pe oră la Mielecin

    Astăzi, 21 Mai, Marţi

    Timp Temperatura Precipitaţii Vânt Presiune Umiditate
    00:00 +12°C° 0 mm 2 m/s 736 mmHg 91%
    01:00 +12°C° 0 mm 2 m/s 735 mmHg 92%
    02:00 +12°C° 0 mm 2 m/s 736 mmHg 93%
    03:00 +12°C° 0 mm 2 m/s 736 mmHg 93%
    04:00 +10°C° 0 mm 2 m/s 736 mmHg 93%
    05:00 +13°C° 0 mm 2 m/s 736 mmHg 88%
    06:00 +14°C° 0 mm 2 m/s 736 mmHg 84%
    07:00 +16°C° 0 mm 2 m/s 736 mmHg 79%
    08:00 +18°C° 0 mm 1 m/s 736 mmHg 74%
    09:00 +19°C° 0 mm 1 m/s 736 mmHg 70%
    10:00 +21°C° 0 mm 1 m/s 736 mmHg 65%
    11:00 +21°C° 0 mm 1 m/s 736 mmHg 66%
    12:00 +21°C° 0 mm 1 m/s 736 mmHg 66%
    13:00 +21°C° 0 mm 1 m/s 736 mmHg 66%
    14:00 +21°C° 0 mm 1 m/s 736 mmHg 64%
    15:00 +22°C° 0 mm 1 m/s 736 mmHg 63%
    16:00 +22°C° 0 mm 1 m/s 736 mmHg 61%
    17:00 +20°C° 0 mm 2 m/s 735 mmHg 66%
    18:00 +19°C° 0 mm 2 m/s 735 mmHg 72%
    19:00 +18°C° 0 mm 2 m/s 735 mmHg 77%
    20:00 +17°C° 0.1 mm 3 m/s 735 mmHg 77%
    21:00 +15°C° 0.1 mm 4 m/s 736 mmHg 78%
    22:00 +15°C° 0.1 mm 4 m/s 736 mmHg 78%
    23:00 +15°C° 0.6 mm 5 m/s 736 mmHg 82%

    Mâine, 22 Mai, Miercuri

    Timp Temperatura Precipitaţii Vânt Presiune Umiditate
    00:00 +14°C° 0.6 mm 5 m/s 736 mmHg 87%
    01:00 +14°C° 0.6 mm 6 m/s 736 mmHg 91%
    02:00 +14°C° 1.4 mm 6 m/s 736 mmHg 92%
    03:00 +14°C° 1.4 mm 6 m/s 736 mmHg 94%
    04:00 +14°C° 1.4 mm 6 m/s 736 mmHg 95%
    05:00 +14°C° 1.2 mm 6 m/s 736 mmHg 96%
    06:00 +14°C° 1.2 mm 6 m/s 737 mmHg 96%
    07:00 +15°C° 1.2 mm 6 m/s 737 mmHg 96%
    08:00 +14°C° 0.8 mm 6 m/s 737 mmHg 96%
    09:00 +14°C° 0.8 mm 6 m/s 737 mmHg 95%
    10:00 +14°C° 0.8 mm 7 m/s 738 mmHg 95%
    11:00 +14°C° 0.3 mm 7 m/s 738 mmHg 95%
    12:00 +14°C° 0.3 mm 7 m/s 738 mmHg 94%
    13:00 +14°C° 0.3 mm 7 m/s 738 mmHg 94%
    14:00 +13°C° 0.1 mm 8 m/s 739 mmHg 93%
    15:00 +13°C° 0.1 mm 8 m/s 739 mmHg 93%
    16:00 +12°C° 0.1 mm 9 m/s 739 mmHg 92%
    17:00 +12°C° 0 mm 8 m/s 740 mmHg 92%
    18:00 +12°C° 0 mm 8 m/s 740 mmHg 92%
    19:00 +11°C° 0 mm 8 m/s 740 mmHg 91%
    20:00 +11°C° 0 mm 8 m/s 741 mmHg 91%
    21:00 +11°C° 0 mm 8 m/s 741 mmHg 91%
    22:00 +11°C° 0 mm 8 m/s 742 mmHg 92%
    23:00 +11°C° 0.1 mm 8 m/s 742 mmHg 92%

    Poimâine, 23 Mai, Joi

    Timp Temperatura Precipitaţii Vânt Presiune Umiditate
    00:00 +11°C° 0.1 mm 8 m/s 742 mmHg 91%
    01:00 +10°C° 0.1 mm 8 m/s 742 mmHg 91%
    02:00 +10°C° 0.1 mm 7 m/s 743 mmHg 92%
    03:00 +10°C° 0.1 mm 7 m/s 743 mmHg 92%
    04:00 +9°C° 0.1 mm 7 m/s 743 mmHg 93%
    05:00 +9°C° 0.2 mm 7 m/s 744 mmHg 93%
    06:00 +9°C° 0.2 mm 7 m/s 744 mmHg 93%
    07:00 +9°C° 0.2 mm 7 m/s 744 mmHg 93%
    08:00 +9°C° 0.1 mm 7 m/s 745 mmHg 92%
    09:00 +9°C° 0.1 mm 6 m/s 745 mmHg 90%
    10:00 +9°C° 0.1 mm 6 m/s 745 mmHg 89%
    11:00 +10°C° 0 mm 5 m/s 745 mmHg 85%
    12:00 +10°C° 0 mm 5 m/s 746 mmHg 82%
    13:00 +12°C° 0 mm 4 m/s 746 mmHg 78%
    14:00 +14°C° 0 mm 4 m/s 745 mmHg 72%
    15:00 +15°C° 0 mm 4 m/s 745 mmHg 65%
    16:00 +17°C° 0 mm 5 m/s 745 mmHg 59%
    17:00 +17°C° 0 mm 4 m/s 745 mmHg 63%
    18:00 +16°C° 0 mm 3 m/s 745 mmHg 68%
    19:00 +13°C° 0 mm 3 m/s 745 mmHg 72%
    20:00 +12°C° 0 mm 3 m/s 745 mmHg 73%
    21:00 +12°C° 0 mm 2 m/s 746 mmHg 75%
    22:00 +9°C° 0 mm 2 m/s 746 mmHg 76%
    23:00 +9°C° 0 mm 2 m/s 746 mmHg 78%

    24 Mai, Vineri

    Timp Temperatura Precipitaţii Vânt Presiune Umiditate
    00:00 +8°C° 0 mm 2 m/s 746 mmHg 81%
    01:00 +7°C° 0 mm 2 m/s 746 mmHg 83%
    02:00 +7°C° 0 mm 2 m/s 746 mmHg 85%
    03:00 +7°C° 0 mm 2 m/s 745 mmHg 88%
    04:00 +6°C° 0 mm 2 m/s 745 mmHg 90%
    05:00 +8°C° 0 mm 2 m/s 745 mmHg 84%
    06:00 +10°C° 0 mm 2 m/s 745 mmHg 78%
    07:00 +13°C° 0 mm 2 m/s 745 mmHg 72%
    08:00 +14°C° 0 mm 2 m/s 745 mmHg 69%
    09:00 +16°C° 0 mm 2 m/s 745 mmHg 65%
    10:00 +17°C° 0 mm 2 m/s 745 mmHg 62%
    11:00 +18°C° 0 mm 2 m/s 744 mmHg 60%
    12:00 +18°C° 0 mm 2 m/s 744 mmHg 58%
    13:00 +19°C° 0 mm 2 m/s 744 mmHg 57%
    14:00 +20°C° 0 mm 1 m/s 743 mmHg 56%
    15:00 +21°C° 0 mm 1 m/s 743 mmHg 55%
    16:00 +21°C° 0 mm 1 m/s 743 mmHg 54%
    17:00 +20°C° 0 mm 1 m/s 742 mmHg 59%
    18:00 +19°C° 0 mm 1 m/s 742 mmHg 65%
    19:00 +16°C° 0 mm 1 m/s 742 mmHg 70%
    20:00 +15°C° 0 mm 2 m/s 742 mmHg 73%
    21:00 +14°C° 0 mm 2 m/s 742 mmHg 75%
    22:00 +12°C° 0 mm 3 m/s 742 mmHg 77%
    23:00 +12°C° 0 mm 3 m/s 742 mmHg 78%

    25 Mai, Sâmbătă

    Timp Temperatura Precipitaţii Vânt Presiune Umiditate
    00:00 +12°C° 0 mm 3 m/s 742 mmHg 78%
    01:00 +12°C° 0 mm 3 m/s 742 mmHg 79%
    02:00 +11°C° 0.1 mm 3 m/s 742 mmHg 83%
    03:00 +11°C° 0.1 mm 3 m/s 742 mmHg 87%
    04:00 +10°C° 0.1 mm 3 m/s 742 mmHg 90%
    05:00 +11°C° 0 mm 4 m/s 742 mmHg 89%
    06:00 +12°C° 0 mm 4 m/s 742 mmHg 88%
    07:00 +13°C° 0 mm 5 m/s 742 mmHg 87%
    08:00 +13°C° 0 mm 5 m/s 743 mmHg 81%
    09:00 +14°C° 0 mm 5 m/s 743 mmHg 75%
    10:00 +14°C° 0 mm 5 m/s 743 mmHg 69%
    11:00 +15°C° 0 mm 6 m/s 743 mmHg 67%
    12:00 +15°C° 0 mm 6 m/s 743 mmHg 66%
    13:00 +16°C° 0 mm 6 m/s 743 mmHg 64%
    14:00 +16°C° 0 mm 6 m/s 743 mmHg 65%
    15:00 +15°C° 0 mm 6 m/s 742 mmHg 66%
    16:00 +15°C° 0 mm 7 m/s 742 mmHg 66%
    17:00 +14°C° 0 mm 6 m/s 742 mmHg 71%
    18:00 +13°C° 0 mm 5 m/s 742 mmHg 75%
    19:00 +12°C° 0 mm 4 m/s 742 mmHg 79%
    20:00 +11°C° 0 mm 4 m/s 742 mmHg 82%
    21:00 +8°C° 0 mm 4 m/s 743 mmHg 85%
    22:00 +8°C° 0 mm 3 m/s 743 mmHg 89%
    23:00 +7°C° 0 mm 4 m/s 743 mmHg 89%

    26 Mai, Duminică

    Timp Temperatura Precipitaţii Vânt Presiune Umiditate
    00:00 +7°C° 0 mm 4 m/s 743 mmHg 90%
    01:00 +7°C° 0 mm 4 m/s 742 mmHg 91%
    02:00 +7°C° 0 mm 4 m/s 742 mmHg 90%
    03:00 +8°C° 0 mm 4 m/s 742 mmHg 90%
    04:00 +8°C° 0 mm 4 m/s 742 mmHg 89%
    05:00 +8°C° 0 mm 5 m/s 742 mmHg 84%
    06:00 +9°C° 0 mm 6 m/s 742 mmHg 79%
    07:00 +10°C° 0 mm 7 m/s 742 mmHg 74%
    08:00 +10°C° 0 mm 7 m/s 742 mmHg 72%
    09:00 +10°C° 0 mm 7 m/s 742 mmHg 70%
    10:00 +11°C° 0 mm 7 m/s 742 mmHg 68%
    11:00 +11°C° 0 mm 7 m/s 742 mmHg 66%
    12:00 +12°C° 0 mm 7 m/s 742 mmHg 65%
    13:00 +12°C° 0 mm 7 m/s 741 mmHg 63%
    14:00 +12°C° 0 mm 7 m/s 741 mmHg 64%
    15:00 +12°C° 0 mm 7 m/s 741 mmHg 65%
    16:00 +12°C° 0 mm 7 m/s 741 mmHg 65%
    17:00 +11°C° 0 mm 6 m/s 741 mmHg 70%
    18:00 +12°C° 0 mm 5 m/s 741 mmHg 74%
    19:00 +12°C° 0 mm 4 m/s 741 mmHg 79%
    20:00 +11°C° 0.1 mm 4 m/s 741 mmHg 82%
    21:00 +10°C° 0.1 mm 4 m/s 741 mmHg 85%
    22:00 +8°C° 0.1 mm 4 m/s 741 mmHg 88%
    23:00 +8°C° 0 mm 4 m/s 742 mmHg 86%
    Arată mai mult